www.pogodaiklimat.ru

Погода и климат >> Архив погоды >> Россия >> Хабаровский край >> Уега


ПОГОДА в Уеге

  • Прогноз погоды в Уеге
  • Монитор погоды в Уеге

АРХИВ ПОГОДЫ в Уеге

Время (UTC), дата Ветер
(напр.,м/с)
 
Видим.   Явления Облачность Т
(С)
Тd
(С)
f
(%)
Тe
(С)
Тes
(С)
Комфортность P
(гПа)
Po
(гПа)
Тmin
(С)
Tmax
(С)
R
(мм)
R24
(мм)
S
(см)
15 13.09 ЮВ 3 2000 м ливневой дождь 10/10 300 м
[Cb cap]
+10.3 +9.3 94 +8 +8 1003.2 956.6
18 13.09 ЮВ 3 2000 м ливневой дождь 10/10 300 м
[Cb cap]
+9.7 +8.9 95 +7 +7 1002.4 955.8
21 13.09 С 1 2000 м ливневой дождь 10/10 300 м
[Cb cap]
+8.0 +7.4 96 +7 +7 1001.6 954.7 +8.0 19
00 14.09 С 2 2000 м ливневой дождь 10/10 300 м
[Cb cap]
+7.3 +6.8 97 +5 +5 1000.5 953.5 +7.3
03 14.09 С 1 2000 м ливневой дождь 10/10 300 м
[Cb cap]
+8.7 +8.3 97 +8 +8 998.8 952.2
06 14.09 штиль 0 2000 м ливневой дождь 10/10 300 м
[Cb cap]
+9.3 +8.3 93 +8 +8 997.3 950.9
09 14.09 СЗ 2 4000 м слаб. ливневой дождь 10/10 300 м
[Cb cap]
+8.2 +7.5 95 +6 +6 998.1 951.5 +9.5 29
12 14.09 СЗ 1 4000 м слаб. ливневой дождь 10/10 300 м
[Cb cap]
+7.3 +6.6 95 +6 +6 999.3 952.3
15 14.09 С 2 2000 м ливневой дождь 10/10 300 м
[Cb cap]
+6.1 +5.4 95 +4 +4 999.6 952.5
18 14.09 С 2 2000 м ливневой дождь 10/10 300 м
[Cb cap]
+5.1 +4.6 97 +2 +2 999.8 952.5
21 14.09 С 2 4000 м слаб. ливневой дождь 10/10 300 м
[Cb cap]
+4.4 +4.0 97 +1 +1 1000.1 952.7 +4.4 17
00 15.09 С 2 4000 м слаб. ливневой дождь 10/10 300 м
[Cb cap]
+4.9 +4.3 96 +2 +2 1000.2 952.8 +4.4
03 15.09 С 3 4000 м слаб. ливневой дождь 10/10 300 м
[Cb cap]
+5.4 +4.3 93 +2 +2 999.6 952.3
06 15.09 СЗ 2 2000 м ливневой дождь 10/10 300 м
[Cb cap]
+4.4 +3.8 96 +1 +1 1000.5 953.0
09 15.09 С 1 50 км в посл. час ливневой дождь 10/10 300 м
[Cb cap]
+4.3 +3.8 97 +3 +3 1001.6 954.0 +5.5 14
12 15.09 С 1 50 км {ливн. осадки} 9/9 600 м
[Cb cap]
+4.6 +4.0 96 +3 +3 1003.1 955.5
15 15.09 СЗ 1 50 км 10/10 600 м
[Cb cap]
+4.4 +3.9 97 +3 +3 1004.4 956.8
18 15.09 штиль 0 50 км 10/10 600 м
[Cb cap]
+3.9 +3.7 99 +3 +3 1006.0 958.2
21 15.09 СЗ 1 50 км 10/10 600 м
[Cb cap]
+4.4 +4.3 99 +3 +3 1007.8 960.0 +3.8
00 16.09 штиль 0 50 км 10/10 300 м
[Cb cap]
+6.6 +5.3 91 +6 +6 1008.9 961.4
03 16.09 ЮВ 1 50 км {ливн. осадки} 9/9 300 м
[Cb cap]
+9.0 +5.5 79 +8 +9 1009.3 962.1
06 16.09 С 1 4000 м слаб. ливневой дождь 10/10 300 м
[Cb cap]
+7.8 +6.8 93 +7 +7 1009.8 962.5
09 16.09 С 1 50 км {ливн. осадки} 10/10 600 м
[Cb cap]
+7.1 +6.5 96 +6 +6 1009.8 962.4 +9.0 0.9
12 16.09 СВ 2 50 км {ливн. осадки} 10/10 600 м
[Cb cap]
+6.9 +5.9 93 +5 +5 1009.9 962.4
15 16.09 СВ 2 2000 м ливневой дождь 10/10 600 м
[Cb cap]
+6.8 +5.7 93 +4 +4 1008.4 961.0
18 16.09 С 1 50 км {ливн. осадки} 10/10 600 м
[Cb cap]
+6.3 +5.6 95 +5 +5 1008.3 960.8
21 16.09 СВ 2 50 км 10/10 600 м
[Cb cap]
+6.9 +4.6 85 +5 +5 1008.5 961.1 +5.9 3
00 17.09 С 1 50 км 10/10 600 м
[Cb cap]
+6.6 +5.9 95 +5 +5 1008.1 960.6
03 17.09 С 1 2000 м ливневой дождь 10/10 600 м
[Cb cap]
+7.0 +6.4 96 +6 +6 1007.5 960.1
06 17.09 СЗ 1 4000 м слаб. ливневой дождь 10/10 600 м
[Cb cap]
+6.7 +6.1 96 +6 +6 1007.5 960.1
09 17.09 С 2 50 км в посл. час ливневой дождь 10/10 600 м
[Cb cap]
+5.2 +4.4 95 +2 +2 1008.6 960.9 +7.6 12
12 17.09 С 1 4000 м слаб. ливневой дождь 10/10 600 м
[Cb cap]
+4.0 +3.6 97 +2 +2 1009.7 961.7
15 17.09 С 1 4000 м слаб. ливневой дождь 10/10 600 м
[Cb cap]
+3.6 +3.3 98 +2 +2 1010.7 962.6
18 17.09 С 1 4000 м слаб. ливневой дождь 10/10 600 м
[Cb cap]
+3.1 +3.0 99 +1 +1 1011.4 963.2
21 17.09 С 1 4000 м слаб. ливневой дождь 10/10 600 м
[Cb cap]
+2.9 +2.7 99 +1 +1 1011.8 963.6 +2.4 3
00 18.09 С 2 50 км {ливн. осадки} 10/10 600 м
[Cb cap]
+5.9 +4.3 89 +3 +3 1012.4 964.6
03 18.09 С 1 50 км 9/9 600 м
[Cb cap]
+8.3 +4.0 74 +8 +8 1012.3 964.9
06 18.09 СВ 1 50 км 9/6 600 м
[Cb cap Ci fib]
+10.1 +1.7 56 +10 +11 1012.1 965.0
09 18.09 З 1 50 км 4/4 600 м
[Cb cap]
+3.4 +1.9 90 +2 +2 1014.3 965.9 +10.6 0.4
12 18.09 СЗ 2 50 км 1/1 1000 м
[Sc]
+0.7 +0.5 99 -3 -3 1016.1 967.3
15 18.09 С 2 50 км 9/9 1000 м
[Sc]
+2.4 +1.3 92 -1 -1 1016.4 967.8
18 18.09 СЗ 1 50 км 1/1 1000 м
[Sc]
-0.9 -1.0 99 -3 -3 1017.0 967.8
21 18.09 С 1 50 км 3/3 1000 м
[Sc]
-1.6 -1.6 100 -4 -4 1018.0 968.6 -2.6
00 19.09 С 2 50 км 3/3 1000 м
[Sc]
+6.8 +1.4 68 +5 +7 1015.9 968.1
03 19.09 СЗ 2 50 км 3/3 1000 м
[Cu Sc]
+11.7 +0.1 45 +11 +15 1014.0 967.0
06 19.09 Ю 1 50 км 3/3 1000 м
[Sc]
+13.0 -0.7 39 +14 +15 1012.9 966.2
09 19.09 СЗ 2 50 км 4/1 1000 м
[Sc Ci fib]
+6.0 +0.1 66 +4 +4 1014.2 966.3 +13.3
12 19.09 СЗ 2 50 км 1/0
[Ci fib]
+1.2 -0.9 86 -2 -2 1015.7 966.9
15 19.09 С 2 50 км 1/0
[Ci fib]
+0.6 -0.9 90 -3 -3 1016.4 967.5
18 19.09 СЗ 1 50 км 1/0
[Ci fib]
-1.6 -2.0 97 -4 -4 1017.0 967.7
21 19.09 С 2 50 км ясно +0.3 -1.5 88 -3 -3 1017.1 968.1 -2.7
00 20.09 СВ 2 н/о н/о +7.3 -0.6 57 +6 +6 1016.0 968.2
03 20.09 Ю 2 50 км 4/3 600 м
[Cb cap Ci fib]
+12.8 -0.6 40 +12 +16 1013.8 967.1
06 20.09 ЮВ 2 50 км 4/3 600 м
[Cb cap Ci fib]
+14.2 -2.1 32 +14 +15 1012.4 965.9
09 20.09 СЗ 1 50 км 8/4 1000 м
[Sc Ci fib]
+4.7 +0.2 73 +4 +4 1014.1 966.0 +14.3
12 20.09 СЗ 1 50 км 10/10 1000 м
[Sc]
+3.0 +0.6 84 +1 +1 1015.1 966.6

 

Местоположение метеостанции Уега (Хабаровский край, Россия): широта 60.72 долгота 142.70 высота над уровнем моря 398 м.

В архиве по умолчанию представлена погода в Уеге за последнюю неделю. Архивные данные за месяц целиком и за предыдущие месяцы, начиная с января 2011 года, Вы можете получить, выбрав интересующий диапазон дат из раскрывающегося списка и нажав кнопку "Ввод!".


*Определитесь, кто Вы:
робот инопланетянин человек

Внимание! Время в таблицах - всемирное. Для получения местного времени необходимо прибавить поправку, которая равна 10 ч.

Смотрите также архив погоды в соседних городах и на ближайших метеорологических станциях:

Погода в Арке (Хабаровский край, Россия) (74 км)
Погода в Охотске (Хабаровский край, Россия) (154 км)
Погода в Улье (Хабаровский край, Россия) (219 км)
Погода в Оймяконе (Якутия, Россия) (282 км)
Погода в Колымской (Магаданская область, Россия) (290 км)
Погода в Агаякане (Якутия, Россия) (295 км)
Погода в Югоренке (Якутия, Россия) (301 км)
Погода в Восточной (Якутия, Россия) (323 км)
Погода в Талоне (Магаданская область, Россия) (343 км)
Погода в Сусумане (Магаданская область, Россия) (365 км)

Пояснения к столбцам:

Ветер - указаны скорость ветра в м/с - средняя за 10 мин, порывы в срок и между сроками (в фигурных скобках) и направление, откуда дует ветер: С - северный, СВ - северо-восточный, В - восточный, ЮВ - юго-восточный, Ю - южный, ЮЗ - юго-западный, З - западный, СЗ - северо-западный.
Видимость - горизонтальная дальность видимости в метрах или километрах. При видимости от 1 до 10 км при отсутствии осадков обычно наблюдается дымка, при ухудшении видимости до 1 км и менее - туман. В сухую погоду видимость может ухудшаться дымом, пылью или мглою.
Явления - указаны атмосферные явления, наблюдавшиеся в срок или в последний час перед сроком; фигурными скобками обозначены явления, наблюдавшиеся между сроками (за 1-3 часа до срока); квадратными скобками обозначены град или гололедные отложения с указанием их диаметра в мм.
Облачность - указаны через наклонную черту общая и нижняя облачность в баллах и высота нижней границы облаков в метрах; квадратными скобками обозначены формы облаков: Ci - перистые, Cs - перисто-слоистые, Cc - перисто-кучевые, Ac - высококучевые, As - высокослоистые, Sc - слоисто-кучевые, Ns - слоисто-дождевые, Cu - кучевые, Cb - кучево-дождевые. Подробнее классификацию облаков см. в Атласе облаков (PDF).
T - Температура воздуха - температура, измеренная на высоте 2 м над землей.
Td - Температура точки росы - температура, при понижении до которой содержащийся в воздухе водяной пар достигнет насыщения.
f - Относительная влажность воздуха - влажноcть воздуха, измеренная на высоте 2 м над землей.
Te - Эффективная температура - температура, которую ощущает одетый по сезону человек в тени. Характеристика душности погоды. При расчете учитывается влияние влажности воздуха и скорости ветра на теплоощущения человека.
Tes - Эффективная температура на солнце - температура, которую ощущает человек, с поправкой на солнечный нагрев. Характеристика знойности погоды. Зависит от высоты солнца над горизонтом, облачности и скорости ветра. Ночью, в пасмурную погоду, а также при ветре 12 м/с и более поправка равна нулю.
P - Атмосферное давление - приведенное к уровню моря атмосферное давление.
Po - Атмосферное давление - измеренное на уровне метеостанции атмосферное давление.
Tmin - Минимальная температура - минимум температуры воздуха на высоте 2 м над землей.
Tmax - Максимальная температура - максимум температуры воздуха на высоте 2 м над землей.
R - Количество осадков - Количество выпавших осадков за период времени, мм. При наведении курсора мыши на число - период времени, за который выпало указанное количество осадков.
R24 - Количество осадков - Количество выпавших осадков за 24 часа, мм.
S - Снежный покров - Высота снежного покрова, см. При наведении курсора мыши на число - состояние снежного покрова и степень покрытия местности в баллах.